Regional Weather Roundup
Issued by NWS Cleveland, OH

Home | Current Version | Previous Version | Graphics & Text | Print | Product List | Glossary On
Versions: 1 2 3 4 5 6 7 8 9 10 11 12 13 14 15 16 17 18 19 20 21 22 23 24 25 26 27 28 29 30 31 32 33 34 35 36 37 38 39 40 41 42 43 44 45 46 47 48 49 50
859
ASUS41 KCLE 221210
RWRCLE
OHIO REGIONAL WEATHER ROUNDUP
NATIONAL WEATHER SERVICE WILMINGTON, OH
800 AM EDT FRI MAY 22 2015

NOTE: "FAIR" INDICATES FEW OR NO CLOUDS BELOW 12,000 FEET WITH NO
SIGNIFICANT WEATHER AND/OR OBSTRUCTIONS TO VISIBILITY.

OHZ001>008-015>018-024>027-034-035-043-044-221300-
   NORTHWEST OHIO

CITY           SKY/WX    TMP DP  RH WIND       PRES   REMARKS
DEFIANCE       MOSUNNY   54  46  74 SW3       30.13R
FINDLAY        CLOUDY    51  43  74 W8        30.12R
TOLEDO EXPRESS MOSUNNY   53  41  63 N7        30.12R
TOLEDO EXEC    MOSUNNY   54  41  61 NW8       30.13R
LIMA           PTSUNNY   50  41  71 SW6       30.13R
$$

OHZ009>014-019>023-028>033-038-089-221300-
   NORTHEAST OHIO

CITY           SKY/WX    TMP DP  RH WIND       PRES   REMARKS
CLE-HOPKINS    CLOUDY    50  43  77 SW5       30.10R
CLE-LAKEFRONT  LGT RAIN  54  47  77 W12       30.08R
CUY CO. ARPT   CLOUDY    54  45  71 W9        30.09R
LORAIN-ELYRIA  MOSUNNY   52  40  63 W7        30.09R
ASHTABULA      CLOUDY    50  41  71 W7        30.08R
AKRON-CANTON   MOSUNNY   51  38  60 W9        30.09R
WOOSTER        MOSUNNY   52  39  61 W6        30.11R
MANSFIELD      MOSUNNY   52  39  61 W7        30.11R
YOUNGSTOWN     LGT RAIN  48  39  71 SW8       30.07R
$$

OHZ042-051>053-060>062-070>072-077>081-221300-
  SOUTHWEST OHIO

CITY           SKY/WX    TMP DP  RH WIND       PRES   REMARKS
CINC-COVINGTON SUNNY     48  44  86 SW6       30.20R
CINC-LUNKEN    SUNNY     49  46  90 S6        30.21R
HAMILTON       SUNNY     50  46  86 CALM      30.20R
DAYTON         SUNNY     50  43  77 CALM      30.19R
WRIGHT-PAT AFB SUNNY     49  45  84 CALM      30.18R
DAYTON GENERAL SUNNY     49  44  83 SW5       30.18R
WILMINGTON     SUNNY     48  43  82 SW9       30.18R
$$

OHZ036-037-039>041-045>050-054>059-063>069-073>076-082>088-221300-
  CENTRAL AND SOUTHEAST OHIO

CITY           SKY/WX    TMP DP  RH WIND       PRES   REMARKS
COLUMBUS       SUNNY     47  43  86 S5        30.16R
OSU AIRPORT    SUNNY     50  43  77 W6        30.15R
BOLTON FIELD   SUNNY     48  45  87 SW7       30.16
RICKENBACK AFB SUNNY     47  43  85 SW9       30.16R
NEWARK         SUNNY     48  44  86 S8        30.14R
MARION         SUNNY     52  40  63 W7        30.13R
LANCASTER      SUNNY     50  43  77 SW8       30.16R
ZANESVILLE     SUNNY     46  41  82 SW5       30.14R
NEW PHILLY     CLOUDY    50  41  71 SW5       30.13R
$$



USA.gov is the U.S. government's official web portal to all federal, state and local government web resources and services.